Terug naar catalogus

DELTA 1 DEB

ActiefPO
NORAD 8682·DEBRIS·🇺🇸 United States

Gelanceerd Jan 22, 1975 vanaf Vandenberg Space Force Base

Loading…

Volgende Passages (komende 24 uur)

TLE

VersSource: Space-Track

Epoch: Sep 14, 2026, 11:37 UTC

1 08682U 75004J   26257.48467655  .00000200  00000-0  97128-4 0  9990
2 08682  97.7322 274.6226 0150267 183.1176 176.9082 14.20873205662990

Volg DELTA 1 DEB in realtime met AllMySat

Download on the App Store